Weather History for Pinedale, WY

Change the Weather History Date:

Friday, May 10, 2013

  Actual Average (KBPI) Record (KBPI)
Temperature  
Mean Temperature 47 °F 44 °F  
Max Temperature 64 °F 60 °F 76 °F (1994)
Min Temperature 30 °F 28 °F 14 °F (2006)
Degree Days  
Heating Degree Days 18 21  
Month to date heating degree days 224  
Since 1 July heating degree days 9755  
Cooling Degree Days 0 0  
Month to date cooling degree days 0  
Year to date cooling degree days 0  
Moisture  
Dew Point 27 °F    
Average Humidity 52    
Maximum Humidity 100    
Minimum Humidity 18    
Precipitation  
Precipitation 0.00 in 0.03 in 0.40 in (2010)
Month to date precipitation 0.25  
Year to date precipitation 1.88  
Sea Level Pressure  
Sea Level Pressure 30.34 in    
Wind  
Wind Speed 6 mph (North)    
Max Wind Speed 18 mph    
Max Gust Speed 26 mph    
Visibility 10 miles    
Events      
T = Trace of Precipitation, MM = Missing Value Source: NWS Daily Summary

Daily Weather History Graph

Daily Weather History Graph

Search for Another Location

Airport:

Trip Planner

Search our weather history database for the weather conditions in past years. The results will help you decide how hot, cold, wet, or windy it might be!

Date:

Astronomy

May. 10, 2013 Rise Set
Actual Time 6:01 AM MDT 8:30 PM MDT
Civil Twilight 5:29 AM MDT 9:02 PM MDT
Nautical Twilight 4:50 AM MDT 9:42 PM MDT
Astronomical Twilight 4:05 AM MDT 10:27 PM MDT
Moon 6:28 AM MDT (5/10) 9:23 PM MDT (5/10)
Length of Visible Light 15h 32m
Length of Day
14h 28m
New Moon, 1% of the Moon is Illuminated
May 10
New Moon
May 17
First Quarter
May 24
Full
May 31
Last Quarter
Jun 8
New

Hourly Weather History & Observations

Time (MDT) Temp. Windchill Dew Point Humidity Pressure Visibility Wind Dir Wind Speed Gust Speed Precip Events Conditions
12:15 AM 41.0 °F - 35.6 °F 81% 30.27 in 10.0 mi Calm Calm - N/A   Clear
12:35 AM 39.2 °F 35.9 °F 35.6 °F 87% 30.28 in 10.0 mi NNW 4.6 mph - N/A   Clear
12:55 AM 39.2 °F 37.0 °F 33.8 °F 81% 30.28 in 10.0 mi NW 3.5 mph - N/A   Clear
1:15 AM 35.6 °F 31.7 °F 33.8 °F 93% 30.29 in 10.0 mi WNW 4.6 mph - N/A   Clear
1:35 AM 35.6 °F 32.8 °F 32.0 °F 87% 30.29 in 10.0 mi NW 3.5 mph - N/A   Clear
1:55 AM 33.8 °F 27.0 °F 32.0 °F 93% 30.29 in 10.0 mi WNW 8.1 mph - N/A   Scattered Clouds
2:15 AM 33.8 °F - 32.0 °F 93% 30.30 in 10.0 mi Calm Calm - N/A   Scattered Clouds
2:35 AM 33.8 °F 27.7 °F 32.0 °F 93% 30.30 in 10.0 mi WNW 6.9 mph - N/A   Clear
2:55 AM 32.0 °F 23.6 °F 32.0 °F 100% 30.30 in 10.0 mi NW 10.4 mph - N/A   Clear
3:15 AM 32.0 °F 25.6 °F 32.0 °F 100% 30.30 in 10.0 mi NW 6.9 mph - N/A   Clear
3:35 AM 32.0 °F 25.6 °F 32.0 °F 100% 30.31 in 10.0 mi NNW 6.9 mph - N/A   Clear
3:55 AM 32.0 °F 25.6 °F 30.2 °F 93% 30.31 in 10.0 mi WNW 6.9 mph - N/A   Clear
4:15 AM 32.0 °F 27.5 °F 30.2 °F 93% 30.31 in 10.0 mi WNW 4.6 mph - N/A   Scattered Clouds
4:35 AM 30.2 °F 24.3 °F 30.2 °F 100% 30.32 in 10.0 mi West 5.8 mph - N/A   Scattered Clouds
4:55 AM 30.2 °F 24.3 °F 30.2 °F 100% 30.32 in 10.0 mi West 5.8 mph - N/A   Clear
5:15 AM 30.2 °F 23.4 °F 30.2 °F 100% 30.32 in 10.0 mi WNW 6.9 mph - N/A   Clear
5:35 AM 30.2 °F 22.6 °F 28.4 °F 93% 30.31 in 10.0 mi West 8.1 mph - N/A   Clear
6:15 AM 30.2 °F 24.3 °F 28.4 °F 93% 30.32 in 10.0 mi WNW 5.8 mph - N/A   Clear
6:35 AM 30.2 °F 26.7 °F 28.4 °F 93% 30.32 in 10.0 mi WNW 3.5 mph - N/A   Clear
7:15 AM 32.0 °F 25.6 °F 32.0 °F 100% 30.34 in 10.0 mi WNW 6.9 mph - N/A   Scattered Clouds
7:35 AM 35.6 °F 30.7 °F 32.0 °F 87% 30.34 in 10.0 mi WNW 5.8 mph - N/A   Clear
7:55 AM 39.2 °F 34.2 °F 32.0 °F 75% 30.34 in 10.0 mi West 6.9 mph - N/A   Clear
8:15 AM 41.0 °F 36.4 °F 32.0 °F 70% 30.34 in 10.0 mi WNW 6.9 mph - N/A   Clear
8:35 AM 44.6 °F 43.1 °F 32.0 °F 61% 30.34 in 10.0 mi WNW 3.5 mph - N/A   Clear
8:55 AM 46.4 °F - 32.0 °F 57% 30.33 in 10.0 mi Calm Calm - N/A   Clear
9:15 AM 50.0 °F - 32.0 °F 50% 30.34 in 10.0 mi Calm Calm - N/A   Clear
9:35 AM 51.8 °F - 32.0 °F 47% 30.34 in 10.0 mi NW 6.9 mph - N/A   Clear
9:55 AM 53.6 °F - 32.0 °F 44% 30.34 in 10.0 mi WNW 5.8 mph - N/A   Clear
10:15 AM 53.6 °F - 30.2 °F 41% 30.33 in 10.0 mi NW 3.5 mph - N/A   Clear
10:35 AM 55.4 °F - 28.4 °F 36% 30.33 in 10.0 mi Calm Calm - N/A   Clear
11:15 AM 59.0 °F - 28.4 °F 31% 30.34 in 10.0 mi Calm Calm - N/A   Clear
11:35 AM 59.0 °F - 26.6 °F 29% 30.34 in 10.0 mi Calm Calm - N/A   Clear
11:55 AM 60.8 °F - 23.0 °F 23% 30.34 in 10.0 mi ENE 10.4 mph 18.4 mph N/A   Scattered Clouds
12:15 PM 60.8 °F - 17.6 °F 19% 30.33 in 10.0 mi ENE 4.6 mph - N/A   Scattered Clouds
12:35 PM 60.8 °F - 17.6 °F 19% 30.34 in 10.0 mi East 8.1 mph - N/A   Scattered Clouds
12:55 PM 62.6 °F - 17.6 °F 18% 30.33 in 10.0 mi NNE 8.1 mph 16.1 mph N/A   Mostly Cloudy
1:15 PM 64.4 °F - 19.4 °F 18% 30.33 in 10.0 mi ESE 10.4 mph 17.3 mph N/A   Scattered Clouds
1:35 PM 64.4 °F - 19.4 °F 18% 30.34 in 10.0 mi NNE 15.0 mph 20.7 mph N/A   Mostly Cloudy
1:55 PM 62.6 °F - 19.4 °F 19% 30.34 in 10.0 mi North 13.8 mph 20.7 mph N/A   Scattered Clouds
2:15 PM 64.4 °F - 21.2 °F 19% 30.34 in 10.0 mi NE 17.3 mph 21.9 mph N/A   Scattered Clouds
2:35 PM 62.6 °F - 19.4 °F 19% 30.34 in 10.0 mi NNE 5.8 mph 20.7 mph N/A   Clear
2:55 PM 64.4 °F - 19.4 °F 18% 30.34 in 10.0 mi NE 18.4 mph 26.5 mph N/A   Scattered Clouds
3:15 PM 64.4 °F - 21.2 °F 19% 30.33 in 10.0 mi NE 9.2 mph 17.3 mph N/A   Scattered Clouds
3:35 PM 64.4 °F - 19.4 °F 18% 30.34 in 10.0 mi NNE 12.7 mph 21.9 mph N/A   Mostly Cloudy
3:55 PM 64.4 °F - 19.4 °F 18% 30.33 in 10.0 mi ENE 11.5 mph 19.6 mph N/A   Mostly Cloudy
4:15 PM 64.4 °F - 19.4 °F 18% 30.33 in 10.0 mi NNE 9.2 mph 19.6 mph N/A   Scattered Clouds
4:35 PM 64.4 °F - 19.4 °F 18% 30.33 in 10.0 mi NE 15.0 mph 18.4 mph N/A   Scattered Clouds
4:55 PM 64.4 °F - 19.4 °F 18% 30.33 in 10.0 mi NNE 16.1 mph 21.9 mph N/A   Scattered Clouds
5:15 PM 64.4 °F - 19.4 °F 18% 30.33 in 10.0 mi ENE 10.4 mph 18.4 mph N/A   Scattered Clouds
5:35 PM 62.6 °F - 19.4 °F 19% 30.34 in 10.0 mi ENE 12.7 mph 19.6 mph N/A   Clear
5:55 PM 62.6 °F - 19.4 °F 19% 30.34 in 10.0 mi East 10.4 mph 16.1 mph N/A   Clear
6:15 PM 62.6 °F - 21.2 °F 20% 30.34 in 10.0 mi ENE 16.1 mph - N/A   Clear
6:35 PM 60.8 °F - 21.2 °F 22% 30.34 in 10.0 mi NE 13.8 mph 19.6 mph N/A   Clear
6:55 PM 60.8 °F - 21.2 °F 22% 30.34 in 10.0 mi ENE 11.5 mph - N/A   Clear
7:15 PM 60.8 °F - 21.2 °F 22% 30.34 in 10.0 mi ENE 11.5 mph 18.4 mph N/A   Clear
7:35 PM 59.0 °F - 21.2 °F 23% 30.35 in 10.0 mi NE 12.7 mph 17.3 mph N/A   Clear
7:55 PM 55.4 °F - 23.0 °F 29% 30.35 in 10.0 mi NE 9.2 mph - N/A   Clear
8:15 PM 53.6 °F - 23.0 °F 30% 30.36 in 10.0 mi ENE 9.2 mph - N/A   Clear
8:35 PM 53.6 °F - 26.6 °F 35% 30.37 in 10.0 mi ENE 10.4 mph - N/A   Clear
8:55 PM 51.8 °F - 26.6 °F 38% 30.37 in 10.0 mi ENE 8.1 mph - N/A   Clear
9:15 PM 50.0 °F - 28.4 °F 43% 30.38 in 10.0 mi SSE 4.6 mph - N/A   Clear
9:35 PM 48.2 °F - 28.4 °F 46% 30.39 in 10.0 mi Calm Calm - N/A   Clear
9:55 PM 50.0 °F - 28.4 °F 43% 30.40 in 10.0 mi Calm Calm - N/A   Clear
10:15 PM 46.4 °F 45.2 °F 28.4 °F 50% 30.40 in 10.0 mi ESE 3.5 mph - N/A   Clear
10:35 PM 46.4 °F - 28.4 °F 50% 30.40 in 10.0 mi Calm Calm - N/A   Clear
10:55 PM 46.4 °F - 28.4 °F 50% 30.41 in 10.0 mi Calm Calm - N/A   Clear
11:15 PM 41.0 °F 36.4 °F 28.4 °F 61% 30.42 in 10.0 mi SE 6.9 mph - N/A   Scattered Clouds
11:35 PM 44.6 °F - 28.4 °F 53% 30.42 in 10.0 mi Calm Calm - N/A   Mostly Cloudy
11:55 PM 37.4 °F 33.8 °F 26.6 °F 65% 30.43 in 10.0 mi North 4.6 mph - N/A   Scattered Clouds